EW2642 Weather Reports


Display with metric or nautical units.
time (UTC)temp
F
wind
direction
speed
MPH
gust
MPH
rain 1hr
in
rain 24hr
in
rain mn
in
humidity
%
barometer
mb
20260504210012 75 334 8.0 14.0 0.00 0.00 0.00 22 1010.3
20260504204528 74 321 5.0 15.0 0.00 0.00 0.00 23 1010.6
20260504203020 74 322 12.0 19.0 0.00 0.00 0.00 22 1010.6
20260504201510 74 10 10.0 17.0 0.00 0.00 0.00 22 1010.6
20260504200010 74 324 10.0 16.0 0.00 0.00 0.00 22 1010.7
20260504194525 74 339 7.0 11.0 0.00 0.00 0.00 22 1010.8
20260504193016 72 5 3.0 10.0 0.00 0.00 0.00 26 1011.0
20260504191512 72 167 4.0 9.0 0.00 0.00 0.00 26 1011.0
20260504190012 71 83 2.0 14.0 0.00 0.00 0.00 24 1011.3
20260504184513 71 67 6.0 17.0 0.00 0.00 0.00 24 1011.5
20260504183030 71 54 3.0 17.0 0.00 0.00 0.00 24 1011.6
20260504181514 70 39 2.0 12.0 0.00 0.00 0.00 24 1011.7
20260504180018 70 5 6.0 11.0 0.00 0.00 0.00 25 1011.9
20260504174510 69 36 4.0 12.0 0.00 0.00 0.00 23 1012.0
20260504173018 69 5 5.0 13.0 0.00 0.00 0.00 24 1012.1
20260504171530 68 347 7.0 14.0 0.00 0.00 0.00 24 1012.2
20260504081515 57 319 5.0 10.0 0.00 0.00 0.00 32 1011.9
20260504050016 63 323 8.0 14.0 0.00 0.00 0.00 30 1012.4
20260504044515 63 350 9.0 14.0 0.00 0.00 0.00 30 1012.2
20260504043027 63 329 7.0 12.0 0.00 0.00 0.00 32 1012.2
20260504041529 63 311 5.0 10.0 0.00 0.00 0.00 33 1012.1
20260504040031 61 333 3.0 8.0 0.00 0.00 0.00 35 1012.0
20260504034539 62 342 2.0 4.0 0.00 0.00 0.00 34 1011.8
20260504033030 64 349 2.0 4.0 0.00 0.00 0.00 29 1011.6
20260504031528 64 352 1.0 3.0 0.00 0.00 0.00 31 1011.6
20260504030039 65 360 1.0 3.0 0.00 0.00 0.00 30 1011.4
20260504024515 67 33 0.0 2.0 0.00 0.00 0.00 28 1011.5
20260504023012 68 42 1.0 4.0 0.00 0.00 0.00 28 1011.4
20260504021514 69 82 2.0 5.0 0.00 0.00 0.00 26 1011.4
20260504020015 71 38 3.0 9.0 0.00 0.00 0.00 24 1011.4
20260504014517 72 67 4.0 9.0 0.00 0.00 0.00 24 1011.4
20260504013011 72 71 2.0 9.0 0.00 0.00 0.00 25 1011.5
20260504011515 74 56 3.0 9.0 0.00 0.00 0.00 23 1011.6
20260504010010 72 98 5.0 11.0 0.00 0.00 0.00 24 1011.6
20260504004511 71 102 3.0 6.0 0.00 0.00 0.00 26 1011.9
20260504003011 71 61 3.0 8.0 0.00 0.00 0.00 23 1012.0
20260504001520 72 74 3.0 10.0 0.00 0.00 0.00 23 1012.2
20260504000012 72 48 2.0 5.0 0.00 0.00 0.00 22 1012.2
20260503234515 72 352 5.0 11.0 0.00 0.00 0.00 22 1012.4
20260503233014 73 293 4.0 11.0 0.00 0.00 0.00 22 1012.4
20260503231518 76 144 3.0 13.0 0.00 0.00 0.00 20 1012.4
20260503230024 76 342 5.0 11.0 0.00 0.00 0.00 19 1012.7
20260503224515 75 128 3.0 11.0 0.00 0.00 0.00 20 1012.8
20260503223022 76 44 4.0 10.0 0.00 0.00 0.00 20 1012.9
20260503221515 76 52 6.0 12.0 0.00 0.00 0.00 19 1013.1
20260503220035 75 120 6.0 15.0 0.00 0.00 0.00 18 1013.3
20260503214525 76 113 9.0 14.0 0.00 0.00 0.00 18 1013.4
20260503213016 76 97 8.0 14.0 0.00 0.00 0.00 18 1013.7
20260503211521 75 103 8.0 13.0 0.00 0.00 0.00 20 1013.8